Flag Weather past 2 weeks in Rockford, Illinois, U.S.A.

Now
40 °F

Mostly cloudy.


Feels Like: 38 °F
Forecast: 33 / 53 °F
Wind: 3 mph from Southwest

Location: Greater Rockford Airport

Current Time: Oct 30, 2014 at 10:27:36 AM

Latest Report: Oct 30, 2014 at 9:54 AM


Visibility: 10 mi

Pressure: 30.15 "Hg

Humidity: 80%

Dew point: 34 °F

Location of RockfordLocation

Historic Weather in Rockford — Graph

°F

Rockford temperature yesterday

Maximum temperature yesterday: 50 °F (at 2:54 PM)
Minimum temperature yesterday: 34 °F (at 11:54 PM)
Average temperature yesterday: 44 °F

Past Weeks' High & Low Weather Summary

 TemperatureHumidityPressure
High78 °F (Oct 27, 2:54 PM)97% (Oct 24, 4:54 AM)30.40 "Hg (Oct 24, 4:54 AM)
Low31 °F (Oct 30, 2:54 AM)21% (Oct 25, 3:54 PM)27.01 "Hg (Oct 17, 4:00 AM)
Average51 °F71%29.98 "Hg
* Reported Oct 15 8:54 AM — Oct 30 8:54 AM, Rockford, Weather by CustomWeather, © 2014

Note: Actual official high and low records may vary slightly from our data, if they occured in-between our weather recording intervals... More about our weather records

Advertising

Rockford weather history for previous 24 hours

 ConditionsComfort  
Time TempWeatherWind HumidityBarometerVisibility
8:54 AM
Oct 30
36 °FMore clouds than sun.No wind85%30.16 "Hg10 mi
7:54 AM33 °FOvercast.No wind88%30.16 "Hg10 mi
6:54 AM32 °FPartly cloudy.3 mph88%30.15 "Hg10 mi
5:54 AM32 °FPassing clouds.No wind85%30.16 "Hg10 mi
4:54 AM31 °FClear.No wind89%30.16 "Hg10 mi
3:54 AM32 °FPassing clouds.3 mph88%30.16 "Hg10 mi
2:54 AM31 °FPassing clouds.No wind89%30.17 "Hg10 mi
1:54 AM33 °FPassing clouds.3 mph85%30.16 "Hg10 mi
12:54 AM33 °FPassing clouds.No wind85%30.16 "Hg10 mi
11:54 PM
Oct 29
34 °FClear.No wind85%30.17 "Hg10 mi
10:54 PM35 °FClear.3 mph82%30.17 "Hg10 mi
9:54 PM35 °FClear.3 mph82%30.17 "Hg10 mi
8:54 PM36 °FClear.3 mph79%30.17 "Hg10 mi
7:54 PM41 °FClear.3 mph67%30.17 "Hg10 mi
6:54 PM42 °FClear.6 mph65%30.16 "Hg10 mi
5:54 PM45 °FPassing clouds.7 mph58%30.16 "Hg10 mi
4:54 PM49 °FScattered clouds.7 mph50%30.14 "Hg10 mi
3:54 PM48 °FPartly sunny.12 mph52%30.13 "Hg10 mi
2:54 PM50 °FPartly sunny.9 mph50%30.13 "Hg10 mi
1:54 PM48 °FOvercast.9 mph54%30.12 "Hg10 mi
12:54 PM47 °FOvercast.14 mph56%30.13 "Hg10 mi
11:54 AM46 °FPartly sunny.13 mph56%30.13 "Hg10 mi
10:54 AM45 °FBroken clouds.14 mph60%30.12 "Hg10 mi
Weather by CustomWeather, © 2014

See weather overviewHow to use our weather pages